Location: Warszawa
(52.2500°N, 21.0000°E)
Time: 14:04:28
(UTC+02:00)

PCSat - Visible Passes

Search period start: 13 April 2024 00:00
Search period end: 23 April 2024 00:00
Orbit: 783 x 792 km, 67.0° (Epoch: 12 April)

Date Brightness Start Highest point End Pass type
(mag) Time Alt. Az. Time Alt. Az. Time Alt. Az.
13 Apr 11.7 00:46:18 10° WNW 00:50:39 24° NNW 00:55:01 10° NNE visible
13 Apr 12.3 02:32:26 10° NW 02:35:55 17° N 02:39:24 10° NE visible
13 Apr 11.8 04:16:34 10° NNW 04:21:07 26° NNE 04:25:39 10° E visible
13 Apr 10.7 20:48:00 10° SSE 20:51:57 21° ESE 20:55:54 10° ENE visible
13 Apr 9.5 22:29:16 10° SW 22:34:41 84° NW 22:40:09 10° NE visible
14 Apr 11.5 00:14:12 10° W 00:18:48 27° NNW 00:23:23 10° NNE visible
14 Apr 12.3 02:00:28 10° NW 02:03:58 17° N 02:07:28 10° NE visible
14 Apr 12.0 03:44:56 10° NNW 03:49:16 23° NNE 03:53:34 10° ENE visible
14 Apr 11.0 20:17:28 10° SE 20:20:35 16° ESE 20:23:42 10° ENE visible
14 Apr 9.4 21:57:41 10° SSW 22:03:04 78° SE 22:08:31 10° NE visible
14 Apr 11.3 23:42:09 10° W 23:46:58 31° NNW 23:51:48 10° NNE visible
15 Apr 12.3 01:28:26 10° NW 01:32:01 17° N 01:35:35 10° NE visible
15 Apr 12.1 03:13:18 10° NNW 03:17:22 21° NNE 03:21:26 10° ENE visible
15 Apr 10.6 04:56:38 10° NNW 05:01:57 51° NE 05:07:13 10° ESE visible
15 Apr 9.5 21:26:13 10° SSW 21:31:31 60° ESE 21:36:51 10° NE visible
15 Apr 11.0 23:10:10 10° WSW 23:15:10 37° NW 23:20:13 10° NNE visible
16 Apr 12.2 00:56:21 10° NW 01:00:04 18° NNW 01:03:47 10° NNE visible
16 Apr 12.2 02:41:35 10° NNW 02:45:27 19° NNE 02:49:18 10° ENE visible
16 Apr 11.0 04:25:03 10° NNW 04:30:13 42° NE 04:35:21 10° ESE visible
16 Apr 9.8 20:54:52 10° S 21:00:00 46° ESE 21:05:10 10° NE visible
16 Apr 10.7 22:38:15 10° WSW 22:43:25 44° NW 22:48:38 10° NNE visible
17 Apr 12.1 00:24:14 10° WNW 00:28:08 20° NNW 00:32:03 10° NNE visible
17 Apr 12.3 02:09:50 10° NNW 02:13:31 18° N 02:17:11 10° NE visible
17 Apr 11.3 03:53:28 10° NNW 03:58:27 35° NE 04:03:24 10° E visible
17 Apr 10.1 20:23:39 10° S 20:28:31 35° ESE 20:33:24 10° NE visible
17 Apr 10.3 22:06:24 10° WSW 22:11:42 54° NW 22:17:03 10° NE visible
17 Apr 12.0 23:52:06 10° WNW 23:56:14 21° NNW 00:00:22 10° NNE visible
18 Apr 12.4 01:38:01 10° NW 01:41:33 17° N 01:45:07 10° NE visible
18 Apr 11.6 03:21:53 10° NNW 03:26:39 30° NNE 03:31:23 10° E visible
18 Apr 9.9 21:34:38 10° SW 21:40:01 68° NW 21:45:28 10° NE visible
18 Apr 11.9 23:19:58 10° WNW 23:24:20 24° NNW 23:28:43 10° NNE visible
19 Apr 12.4 01:06:07 10° NW 01:09:36 17° N 01:13:05 10° NE visible
19 Apr 11.8 02:50:17 10° NNW 02:54:49 26° NNE 02:59:20 10° E visible
19 Apr 9.8 04:33:32 10° NW 04:38:59 79° NE 04:44:25 10° SE visible
19 Apr 9.6 21:02:57 10° SW 21:08:23 85° NW 21:13:51 10° NE visible
19 Apr 11.7 22:47:53 10° W 22:52:29 27° NNW 22:57:06 10° NNE visible
20 Apr 12.4 00:34:08 10° NW 00:37:39 17° N 00:41:09 10° NE visible
20 Apr 12.0 02:18:39 10° NNW 02:22:57 23° NNE 02:27:13 10° ENE visible
20 Apr 10.2 04:01:55 10° NW 04:07:20 63° NE 04:12:43 10° SE visible
20 Apr 9.5 20:31:23 10° SSW 20:36:47 76° SE 20:42:13 10° NE visible
20 Apr 11.5 22:15:50 10° W 22:20:39 32° NNW 22:25:30 10° NNE visible
21 Apr 12.4 00:02:06 10° NW 00:05:41 17° N 00:09:16 10° NE visible
21 Apr 12.2 01:46:59 10° NNW 01:51:03 21° NNE 01:55:05 10° ENE visible
21 Apr 10.6 03:30:20 10° NNW 03:35:39 50° NE 03:40:54 10° ESE visible
21 Apr 11.2 21:43:50 10° WSW 21:48:52 37° NW 21:53:55 10° NNE visible
21 Apr 12.3 23:30:01 10° NW 23:33:44 18° NNW 23:37:29 10° NNE visible
22 Apr 12.3 01:15:17 10° NNW 01:19:07 19° NNE 01:22:57 10° ENE visible
22 Apr 10.9 02:58:45 10° NNW 03:03:54 41° NE 03:09:01 10° ESE visible
22 Apr 9.7 04:42:10 10° NW 04:47:25 51° WSW 04:52:38 10° SSE visible
22 Apr 10.8 21:11:55 10° WSW 21:17:06 45° NW 21:22:20 10° NNE visible
22 Apr 12.3 22:57:53 10° WNW 23:01:48 20° NNW 23:05:44 10° NNE visible
